Year,Month,Day,Hour,Minute,Value (Times are PST for temperature in C)
2007,10,27,00,00,1.80
2007,10,27,00,01,1.80
2007,10,27,00,02,1.80
2007,10,27,00,03,1.80
2007,10,27,00,04,1.80
2007,10,27,00,05,1.80
2007,10,27,00,06,1.80
2007,10,27,00,07,1.80
2007,10,27,00,08,1.80
2007,10,27,00,09,1.80
2007,10,27,00,10,1.80
2007,10,27,00,11,1.80
2007,10,27,00,12,1.80
2007,10,27,00,13,1.80
2007,10,27,00,14,1.80
2007,10,27,00,15,1.80
2007,10,27,00,16,1.80
2007,10,27,00,17,1.80
2007,10,27,00,18,1.80
2007,10,27,00,19,1.80
2007,10,27,00,20,1.80
2007,10,27,00,21,1.80
2007,10,27,00,22,1.80
2007,10,27,00,23,1.80
2007,10,27,00,24,1.80
2007,10,27,00,25,1.70
2007,10,27,00,26,1.70
2007,10,27,00,27,1.70
2007,10,27,00,28,1.70
2007,10,27,00,29,1.70
2007,10,27,00,30,1.70
2007,10,27,00,31,1.70
2007,10,27,00,32,1.70
2007,10,27,00,33,1.70
2007,10,27,00,34,1.70
2007,10,27,00,35,1.70
2007,10,27,00,36,1.70
2007,10,27,00,37,1.70
2007,10,27,00,38,1.70
2007,10,27,00,39,1.70
2007,10,27,00,40,1.70
2007,10,27,00,41,1.70
2007,10,27,00,42,1.70
2007,10,27,00,43,1.70
2007,10,27,00,44,1.70
2007,10,27,00,45,1.70
2007,10,27,00,46,1.80
2007,10,27,00,47,1.70
2007,10,27,00,48,1.70
2007,10,27,00,49,1.70
2007,10,27,00,50,1.70
2007,10,27,00,51,1.70
2007,10,27,00,52,1.70
2007,10,27,00,53,1.70
2007,10,27,00,54,1.70
2007,10,27,00,55,1.70
2007,10,27,00,56,1.70
2007,10,27,00,57,1.80
2007,10,27,00,58,1.80
2007,10,27,00,59,1.80
2007,10,27,01,00,1.80
2007,10,27,01,01,1.80
2007,10,27,01,02,1.80
2007,10,27,01,03,1.80
2007,10,27,01,04,1.80
2007,10,27,01,05,1.80
2007,10,27,01,06,1.80
2007,10,27,01,07,1.80
2007,10,27,01,08,1.80
2007,10,27,01,09,1.80
2007,10,27,01,10,1.90
2007,10,27,01,11,1.90
2007,10,27,01,12,1.90
2007,10,27,01,13,1.90
2007,10,27,01,14,1.90
2007,10,27,01,15,1.90
2007,10,27,01,16,1.90
2007,10,27,01,17,1.90
2007,10,27,01,18,1.90
2007,10,27,01,19,1.90
2007,10,27,01,20,1.90
2007,10,27,01,21,1.90
2007,10,27,01,22,1.80
2007,10,27,01,23,1.90
2007,10,27,01,24,1.90
2007,10,27,01,25,1.90
2007,10,27,01,26,1.90
2007,10,27,01,27,2.00
2007,10,27,01,28,2.00
2007,10,27,01,29,2.00
2007,10,27,01,30,2.00
2007,10,27,01,31,2.00
2007,10,27,01,32,2.10
2007,10,27,01,33,2.10
2007,10,27,01,34,2.10
2007,10,27,01,35,2.10
2007,10,27,01,36,2.10
2007,10,27,01,37,2.00
2007,10,27,01,38,2.00
2007,10,27,01,39,2.00
2007,10,27,01,40,1.90
2007,10,27,01,41,1.90
2007,10,27,01,42,1.90
2007,10,27,01,43,1.80
2007,10,27,01,44,1.80
2007,10,27,01,45,1.80
2007,10,27,01,46,1.80
2007,10,27,01,47,1.80
2007,10,27,01,48,1.80
2007,10,27,01,49,1.80
2007,10,27,01,50,1.80
2007,10,27,01,51,1.80
2007,10,27,01,52,1.80
2007,10,27,01,53,1.80
2007,10,27,01,54,1.80
2007,10,27,01,55,1.80
2007,10,27,01,56,1.80
2007,10,27,01,57,1.80
2007,10,27,01,58,1.80
2007,10,27,01,59,1.80
2007,10,27,02,00,1.80
2007,10,27,02,01,1.80
2007,10,27,02,02,1.80
2007,10,27,02,03,1.80
2007,10,27,02,04,1.80
2007,10,27,02,05,1.80
2007,10,27,02,06,1.80
2007,10,27,02,07,1.80
2007,10,27,02,08,1.80
2007,10,27,02,09,1.90
2007,10,27,02,10,1.90
2007,10,27,02,11,1.90
2007,10,27,02,12,1.90
2007,10,27,02,13,1.90
2007,10,27,02,14,1.80
2007,10,27,02,15,1.80
2007,10,27,02,16,1.80
2007,10,27,02,17,1.80
2007,10,27,02,18,1.80
2007,10,27,02,19,1.80
2007,10,27,02,20,1.80
2007,10,27,02,21,1.80
2007,10,27,02,22,1.80
2007,10,27,02,23,1.80
2007,10,27,02,24,1.80
2007,10,27,02,25,1.80
2007,10,27,02,26,1.80
2007,10,27,02,27,1.80
2007,10,27,02,28,1.80
2007,10,27,02,29,1.80
2007,10,27,02,30,1.80
2007,10,27,02,31,1.90
2007,10,27,02,32,1.90
2007,10,27,02,33,1.90
2007,10,27,02,34,1.90
2007,10,27,02,35,1.90
2007,10,27,02,36,1.90
2007,10,27,02,37,1.90
2007,10,27,02,38,2.00
2007,10,27,02,39,2.00
2007,10,27,02,40,2.00
2007,10,27,02,41,2.00
2007,10,27,02,42,2.00
2007,10,27,02,43,2.00
2007,10,27,02,44,2.00
2007,10,27,02,45,1.90
2007,10,27,02,46,1.90
2007,10,27,02,47,1.80
2007,10,27,02,48,1.80
2007,10,27,02,49,1.80
2007,10,27,02,50,1.80
2007,10,27,02,51,1.70
2007,10,27,02,52,1.70
2007,10,27,02,53,1.70
2007,10,27,02,54,1.60
2007,10,27,02,55,1.60
2007,10,27,02,56,1.60
2007,10,27,02,57,1.60
2007,10,27,02,58,1.60
2007,10,27,02,59,1.50
2007,10,27,03,00,1.50
2007,10,27,03,01,1.50
2007,10,27,03,02,1.60
2007,10,27,03,03,1.60
2007,10,27,03,04,1.60
2007,10,27,03,05,1.60
2007,10,27,03,06,1.60
2007,10,27,03,07,1.60
2007,10,27,03,08,1.60
2007,10,27,03,09,1.60
2007,10,27,03,10,1.60
2007,10,27,03,11,1.60
2007,10,27,03,12,1.60
2007,10,27,03,13,1.60
2007,10,27,03,14,1.60
2007,10,27,03,15,1.60
2007,10,27,03,16,1.60
2007,10,27,03,17,1.60
2007,10,27,03,18,1.60
2007,10,27,03,19,1.60
2007,10,27,03,20,1.60
2007,10,27,03,21,1.70
2007,10,27,03,22,1.70
2007,10,27,03,23,1.70
2007,10,27,03,24,1.80
2007,10,27,03,25,1.80
2007,10,27,03,26,1.80
2007,10,27,03,27,1.80
2007,10,27,03,28,1.80
2007,10,27,03,29,1.80
2007,10,27,03,30,1.80
2007,10,27,03,31,1.80
2007,10,27,03,32,1.80
2007,10,27,03,33,1.80
2007,10,27,03,34,1.80
2007,10,27,03,35,1.80
2007,10,27,03,36,1.80
2007,10,27,03,37,1.80
2007,10,27,03,38,1.80
2007,10,27,03,39,1.80
2007,10,27,03,40,1.90
2007,10,27,03,41,1.90
2007,10,27,03,42,1.90
2007,10,27,03,43,1.90
2007,10,27,03,44,2.00
2007,10,27,03,45,2.00
2007,10,27,03,46,2.00
2007,10,27,03,47,2.10
2007,10,27,03,48,2.10
2007,10,27,03,49,2.10
2007,10,27,03,50,2.10
2007,10,27,03,51,2.10
2007,10,27,03,52,2.10
2007,10,27,03,53,2.20
2007,10,27,03,54,2.20
2007,10,27,03,55,2.20
2007,10,27,03,56,2.20
2007,10,27,03,57,2.30
2007,10,27,03,58,2.40
2007,10,27,03,59,2.40
2007,10,27,04,00,2.50
2007,10,27,04,01,2.50
2007,10,27,04,02,2.50
2007,10,27,04,03,2.40
2007,10,27,04,04,2.40
2007,10,27,04,05,2.40
2007,10,27,04,06,2.30
2007,10,27,04,07,2.30
2007,10,27,04,08,2.20
2007,10,27,04,09,2.20
2007,10,27,04,10,2.20
2007,10,27,04,11,2.20
2007,10,27,04,12,2.20
2007,10,27,04,13,2.20
2007,10,27,04,14,2.20
2007,10,27,04,15,2.10
2007,10,27,04,16,2.10
2007,10,27,04,17,2.10
2007,10,27,04,18,2.10
2007,10,27,04,19,2.10
2007,10,27,04,20,2.10
2007,10,27,04,21,2.00
2007,10,27,04,22,2.00
2007,10,27,04,23,2.00
2007,10,27,04,24,2.00
2007,10,27,04,25,2.00
2007,10,27,04,26,2.00
2007,10,27,04,27,2.00
2007,10,27,04,28,2.00
2007,10,27,04,29,2.00
2007,10,27,04,30,2.00
2007,10,27,04,31,2.00
2007,10,27,04,32,2.00
2007,10,27,04,33,2.00
2007,10,27,04,34,1.90
2007,10,27,04,35,1.90
2007,10,27,04,36,1.90
2007,10,27,04,37,1.90
2007,10,27,04,38,1.80
2007,10,27,04,39,1.80
2007,10,27,04,40,1.80
2007,10,27,04,41,1.90
2007,10,27,04,42,1.90
2007,10,27,04,43,1.90
2007,10,27,04,44,1.90
2007,10,27,04,45,1.90
2007,10,27,04,46,2.00
2007,10,27,04,47,2.00
2007,10,27,04,48,2.00
2007,10,27,04,49,2.00
2007,10,27,04,50,2.00
2007,10,27,04,51,2.00
2007,10,27,04,52,2.00
2007,10,27,04,53,2.10
2007,10,27,04,54,2.10
2007,10,27,04,55,2.10
2007,10,27,04,56,2.10
2007,10,27,04,57,2.10
2007,10,27,04,58,2.10
2007,10,27,04,59,2.10
2007,10,27,05,00,2.20
2007,10,27,05,01,2.20
2007,10,27,05,02,2.20
2007,10,27,05,03,2.20
2007,10,27,05,04,2.20
2007,10,27,05,05,2.20
2007,10,27,05,06,2.20
2007,10,27,05,07,2.20
2007,10,27,05,08,2.10
2007,10,27,05,09,2.10
2007,10,27,05,10,2.10
2007,10,27,05,11,2.00
2007,10,27,05,12,2.00
2007,10,27,05,13,2.00
2007,10,27,05,14,2.00
2007,10,27,05,15,2.00
2007,10,27,05,16,2.00
2007,10,27,05,17,2.10
2007,10,27,05,18,2.10
2007,10,27,05,19,2.10
2007,10,27,05,20,2.20
2007,10,27,05,21,2.20
2007,10,27,05,22,2.20
2007,10,27,05,23,2.30
2007,10,27,05,24,2.30
2007,10,27,05,25,2.30
2007,10,27,05,26,2.30
2007,10,27,05,27,2.30
2007,10,27,05,28,2.30
2007,10,27,05,29,2.30
2007,10,27,05,30,2.20
2007,10,27,05,31,2.20
2007,10,27,05,32,2.20
2007,10,27,05,33,2.20
2007,10,27,05,34,2.20
2007,10,27,05,35,2.20
2007,10,27,05,36,2.20
2007,10,27,05,37,2.10
2007,10,27,05,38,2.10
2007,10,27,05,39,2.10
2007,10,27,05,40,2.10
2007,10,27,05,41,2.10
2007,10,27,05,42,2.10
2007,10,27,05,43,2.10
2007,10,27,05,44,2.10
2007,10,27,05,45,2.20
2007,10,27,05,46,2.20
2007,10,27,05,47,2.20
2007,10,27,05,48,2.20
2007,10,27,05,49,2.20
2007,10,27,05,50,2.20
2007,10,27,05,51,2.20
2007,10,27,05,52,2.20
2007,10,27,05,53,2.20
2007,10,27,05,54,2.20
2007,10,27,05,55,2.20
2007,10,27,05,56,2.20
2007,10,27,05,57,2.20
2007,10,27,05,58,2.20
2007,10,27,05,59,2.20
2007,10,27,06,00,2.20
2007,10,27,06,01,2.20
2007,10,27,06,02,2.20
2007,10,27,06,03,2.10
2007,10,27,06,04,2.10
2007,10,27,06,05,2.10
2007,10,27,06,06,2.10
2007,10,27,06,07,2.00
2007,10,27,06,08,2.00
2007,10,27,06,09,2.00
2007,10,27,06,10,2.00
2007,10,27,06,11,2.00
2007,10,27,06,12,1.90
2007,10,27,06,13,1.90
2007,10,27,06,14,1.90
2007,10,27,06,15,1.90
2007,10,27,06,16,2.00
2007,10,27,06,17,2.00
2007,10,27,06,18,2.00
2007,10,27,06,19,2.10
2007,10,27,06,20,2.10
2007,10,27,06,21,2.20
2007,10,27,06,22,2.20
2007,10,27,06,23,2.20
2007,10,27,06,24,2.20
2007,10,27,06,25,2.20
2007,10,27,06,26,2.20
2007,10,27,06,27,2.20
2007,10,27,06,28,2.20
2007,10,27,06,29,2.30
2007,10,27,06,30,2.30
2007,10,27,06,31,2.40
2007,10,27,06,32,2.40
2007,10,27,06,33,2.50
2007,10,27,06,34,2.50
2007,10,27,06,35,2.60
2007,10,27,06,36,2.70
2007,10,27,06,37,2.70
2007,10,27,06,38,2.70
2007,10,27,06,39,2.70
2007,10,27,06,40,2.70
2007,10,27,06,41,2.70
2007,10,27,06,42,2.70
2007,10,27,06,43,2.80
2007,10,27,06,44,2.90
2007,10,27,06,45,2.90
2007,10,27,06,46,2.90
2007,10,27,06,47,2.90
2007,10,27,06,48,3.10
2007,10,27,06,49,3.10
2007,10,27,06,50,3.10
2007,10,27,06,51,3.10
2007,10,27,06,52,3.10
2007,10,27,06,53,3.10
2007,10,27,06,54,3.10
2007,10,27,06,55,3.10
2007,10,27,06,56,3.20
2007,10,27,06,57,3.30
2007,10,27,06,58,3.30
2007,10,27,06,59,3.30
2007,10,27,07,00,3.30
2007,10,27,07,01,3.30
2007,10,27,07,02,3.30
2007,10,27,07,03,3.30
2007,10,27,07,04,3.30
2007,10,27,07,05,3.30
2007,10,27,07,06,3.30
2007,10,27,07,07,3.30
2007,10,27,07,08,3.30
2007,10,27,07,09,3.30
2007,10,27,07,10,3.30
2007,10,27,07,11,3.30
2007,10,27,07,12,3.30
2007,10,27,07,13,3.30
2007,10,27,07,14,3.20
2007,10,27,07,15,3.20
2007,10,27,07,16,3.10
2007,10,27,07,17,3.10
2007,10,27,07,18,3.10
2007,10,27,07,19,3.00
2007,10,27,07,20,2.90
2007,10,27,07,21,2.90
2007,10,27,07,22,2.90
2007,10,27,07,23,2.90
2007,10,27,07,24,2.90
2007,10,27,07,25,2.80
2007,10,27,07,26,2.80
2007,10,27,07,27,2.80
2007,10,27,07,28,2.80
2007,10,27,07,29,2.80
2007,10,27,07,30,2.80
2007,10,27,07,31,2.80
2007,10,27,07,32,2.80
2007,10,27,07,33,2.80
2007,10,27,07,34,2.90
2007,10,27,07,35,2.90
2007,10,27,07,36,2.90
2007,10,27,07,37,2.90
2007,10,27,07,38,2.90
2007,10,27,07,39,2.90
2007,10,27,07,40,2.90
2007,10,27,07,41,2.90
2007,10,27,07,42,2.90
2007,10,27,07,43,2.90
2007,10,27,07,44,3.00
2007,10,27,07,45,3.10
2007,10,27,07,46,3.10
2007,10,27,07,47,3.10
2007,10,27,07,48,3.10
2007,10,27,07,49,3.10
2007,10,27,07,50,3.10
2007,10,27,07,51,3.20
2007,10,27,07,52,3.20
2007,10,27,07,53,3.20
2007,10,27,07,54,3.20
2007,10,27,07,55,3.20
2007,10,27,07,56,3.20
2007,10,27,07,57,3.20
2007,10,27,07,58,3.20
2007,10,27,07,59,3.20
2007,10,27,08,00,3.20
2007,10,27,08,01,3.30
2007,10,27,08,02,3.30
2007,10,27,08,03,3.30
2007,10,27,08,04,3.30
2007,10,27,08,05,3.30
2007,10,27,08,06,3.30
2007,10,27,08,07,3.40
2007,10,27,08,08,3.30
2007,10,27,08,09,3.30
2007,10,27,08,10,3.30
2007,10,27,08,11,3.30
2007,10,27,08,12,3.30
2007,10,27,08,13,3.30
2007,10,27,08,14,3.30
2007,10,27,08,15,3.30
2007,10,27,08,16,3.30
2007,10,27,08,17,3.30
2007,10,27,08,18,3.30
2007,10,27,08,19,3.30
2007,10,27,08,20,3.20
2007,10,27,08,21,3.20
2007,10,27,08,22,3.20
2007,10,27,08,23,3.20
2007,10,27,08,24,3.10
2007,10,27,08,25,3.10
2007,10,27,08,26,3.10
2007,10,27,08,27,3.10
2007,10,27,08,28,3.10
2007,10,27,08,29,3.10
2007,10,27,08,30,3.10
2007,10,27,08,31,3.10
2007,10,27,08,32,3.10
2007,10,27,08,33,3.10
2007,10,27,08,34,3.10
2007,10,27,08,35,3.10
2007,10,27,08,36,3.10
2007,10,27,08,37,3.10
2007,10,27,08,38,3.10
2007,10,27,08,39,3.10
2007,10,27,08,40,3.10
2007,10,27,08,41,3.10
2007,10,27,08,42,3.10
2007,10,27,08,43,3.20
2007,10,27,08,44,3.20
2007,10,27,08,45,3.30
2007,10,27,08,46,3.30
2007,10,27,08,47,3.40
2007,10,27,08,48,3.50
2007,10,27,08,49,3.50
2007,10,27,08,50,3.60
2007,10,27,08,51,3.60
2007,10,27,08,52,3.60
2007,10,27,08,53,3.50
2007,10,27,08,54,3.50
2007,10,27,08,55,3.50
2007,10,27,08,56,3.40
2007,10,27,08,57,3.40
2007,10,27,08,58,3.40
2007,10,27,08,59,3.30
2007,10,27,09,00,3.30
2007,10,27,09,01,3.30
2007,10,27,09,02,3.30
2007,10,27,09,03,3.40
2007,10,27,09,04,3.40
2007,10,27,09,05,3.50
2007,10,27,09,06,3.50
2007,10,27,09,07,3.60
2007,10,27,09,08,3.60
2007,10,27,09,09,3.70
2007,10,27,09,10,3.80
2007,10,27,09,11,3.80
2007,10,27,09,12,3.90
2007,10,27,09,13,4.00
2007,10,27,09,14,4.00
2007,10,27,09,15,4.10
2007,10,27,09,16,4.20
2007,10,27,09,17,4.20
2007,10,27,09,18,4.30
2007,10,27,09,19,4.40
2007,10,27,09,20,4.40
2007,10,27,09,21,4.50
2007,10,27,09,22,4.50
2007,10,27,09,23,4.60
2007,10,27,09,24,4.60
2007,10,27,09,25,4.60
2007,10,27,09,26,4.70
2007,10,27,09,27,4.70
2007,10,27,09,28,4.80
2007,10,27,09,29,4.90
2007,10,27,09,30,4.90
2007,10,27,09,31,4.90
2007,10,27,09,32,5.00
2007,10,27,09,33,5.10
2007,10,27,09,34,5.10
2007,10,27,09,35,5.10
2007,10,27,09,36,5.20
2007,10,27,09,37,5.30
2007,10,27,09,38,5.30
2007,10,27,09,39,5.40
2007,10,27,09,40,5.50
2007,10,27,09,41,5.60
2007,10,27,09,42,5.70
2007,10,27,09,43,5.80
2007,10,27,09,44,5.80
2007,10,27,09,45,5.90
2007,10,27,09,46,5.90
2007,10,27,09,47,5.90
2007,10,27,09,48,5.90
2007,10,27,09,49,5.90
2007,10,27,09,50,5.90
2007,10,27,09,51,5.90
2007,10,27,09,52,5.90
2007,10,27,09,53,6.00
2007,10,27,09,54,6.00
2007,10,27,09,55,6.00
2007,10,27,09,56,6.10
2007,10,27,09,57,6.10
2007,10,27,09,58,6.20
2007,10,27,09,59,6.20
2007,10,27,10,00,6.20
2007,10,27,10,01,6.20
2007,10,27,10,02,6.30
2007,10,27,10,03,6.30
2007,10,27,10,04,6.40
2007,10,27,10,05,6.40
2007,10,27,10,06,6.40
2007,10,27,10,07,6.40
2007,10,27,10,08,6.40
2007,10,27,10,09,6.40
2007,10,27,10,10,6.40
2007,10,27,10,11,6.40
2007,10,27,10,12,6.40
2007,10,27,10,13,6.50
2007,10,27,10,14,6.60
2007,10,27,10,15,6.60
2007,10,27,10,16,6.60
2007,10,27,10,17,6.70
2007,10,27,10,18,6.70
2007,10,27,10,19,6.80
2007,10,27,10,20,6.80
2007,10,27,10,21,6.80
2007,10,27,10,22,6.90
2007,10,27,10,23,6.90
2007,10,27,10,24,7.00
2007,10,27,10,25,7.00
2007,10,27,10,26,7.10
2007,10,27,10,27,7.10
2007,10,27,10,28,7.20
2007,10,27,10,29,7.30
2007,10,27,10,30,7.30
2007,10,27,10,31,7.30
2007,10,27,10,32,7.40
2007,10,27,10,33,7.50
2007,10,27,10,34,7.50
2007,10,27,10,35,7.60
2007,10,27,10,36,7.70
2007,10,27,10,37,7.80
2007,10,27,10,38,7.80
2007,10,27,10,39,7.80
2007,10,27,10,40,7.90
2007,10,27,10,41,8.00
2007,10,27,10,42,8.00
2007,10,27,10,43,8.10
2007,10,27,10,44,8.10
2007,10,27,10,45,8.20
2007,10,27,10,46,8.30
2007,10,27,10,47,8.40
2007,10,27,10,48,8.40
2007,10,27,10,49,8.50
2007,10,27,10,50,8.50
2007,10,27,10,51,8.60
2007,10,27,10,52,8.70
2007,10,27,10,53,8.70
2007,10,27,10,54,8.80
2007,10,27,10,55,8.80
2007,10,27,10,56,8.90
2007,10,27,10,57,9.00
2007,10,27,10,58,9.00
2007,10,27,10,59,9.10
2007,10,27,11,00,9.20
2007,10,27,11,01,9.20
2007,10,27,11,02,9.30
2007,10,27,11,03,9.30
2007,10,27,11,04,9.40
2007,10,27,11,05,9.40
2007,10,27,11,06,9.50
2007,10,27,11,07,9.50
2007,10,27,11,08,9.60
2007,10,27,11,09,9.60
2007,10,27,11,10,9.70
2007,10,27,11,11,9.70
2007,10,27,11,12,9.80
2007,10,27,11,13,9.90
2007,10,27,11,14,9.90
2007,10,27,11,15,9.90
2007,10,27,11,16,9.90
2007,10,27,11,17,9.90
2007,10,27,11,18,9.90
2007,10,27,11,19,9.90
2007,10,27,11,20,9.90
2007,10,27,11,21,9.90
2007,10,27,11,22,9.90
2007,10,27,11,23,9.90
2007,10,27,11,24,9.80
2007,10,27,11,25,9.80
2007,10,27,11,26,9.80
2007,10,27,11,27,9.80
2007,10,27,11,28,9.80
2007,10,27,11,29,9.80
2007,10,27,11,30,9.70
2007,10,27,11,31,9.70
2007,10,27,11,32,9.70
2007,10,27,11,33,9.80
2007,10,27,11,34,9.80
2007,10,27,11,35,9.80
2007,10,27,11,36,9.80
2007,10,27,11,37,9.90
2007,10,27,11,38,9.90
2007,10,27,11,39,9.90
2007,10,27,11,40,9.90
2007,10,27,11,41,9.90
2007,10,27,11,42,9.90
2007,10,27,11,43,9.90
2007,10,27,11,44,9.90
2007,10,27,11,45,9.90
2007,10,27,11,46,9.80
2007,10,27,11,47,9.70
2007,10,27,11,48,9.70
2007,10,27,11,49,9.70
2007,10,27,11,50,9.70
2007,10,27,11,51,9.70
2007,10,27,11,52,9.60
2007,10,27,11,53,9.60
2007,10,27,11,54,9.50
2007,10,27,11,55,9.50
2007,10,27,11,56,9.50
2007,10,27,11,57,9.50
2007,10,27,11,58,9.50
2007,10,27,11,59,9.50
2007,10,27,12,00,9.50
2007,10,27,12,01,9.50
2007,10,27,12,02,9.40
2007,10,27,12,03,9.40
2007,10,27,12,04,9.40
2007,10,27,12,05,9.40
2007,10,27,12,06,9.40
2007,10,27,12,07,9.30
2007,10,27,12,08,9.30
2007,10,27,12,09,9.30
2007,10,27,12,10,9.30
2007,10,27,12,11,9.30
2007,10,27,12,12,9.30
2007,10,27,12,13,9.30
2007,10,27,12,14,9.40
2007,10,27,12,15,9.40
2007,10,27,12,16,9.50
2007,10,27,12,17,9.50
2007,10,27,12,18,9.60
2007,10,27,12,19,9.70
2007,10,27,12,20,9.70
2007,10,27,12,21,9.70
2007,10,27,12,22,9.80
2007,10,27,12,23,9.90
2007,10,27,12,24,9.90
2007,10,27,12,25,10.00
2007,10,27,12,26,10.10
2007,10,27,12,27,10.10
2007,10,27,12,28,10.30
2007,10,27,12,29,10.30
2007,10,27,12,30,10.40
2007,10,27,12,31,10.40
2007,10,27,12,32,10.50
2007,10,27,12,33,10.60
2007,10,27,12,34,10.70
2007,10,27,12,35,10.80
2007,10,27,12,36,10.80
2007,10,27,12,37,10.90
2007,10,27,12,38,10.90
2007,10,27,12,39,11.00
2007,10,27,12,40,11.10
2007,10,27,12,41,11.10
2007,10,27,12,42,11.10
2007,10,27,12,43,11.10
2007,10,27,12,44,11.10
2007,10,27,12,45,11.10
2007,10,27,12,46,11.10
2007,10,27,12,47,11.10
2007,10,27,12,48,11.20
2007,10,27,12,49,11.20
2007,10,27,12,50,11.30
2007,10,27,12,51,11.30
2007,10,27,12,52,11.30
2007,10,27,12,53,11.30
2007,10,27,12,54,11.30
2007,10,27,12,55,11.20
2007,10,27,12,56,11.10
2007,10,27,12,57,11.10
2007,10,27,12,58,11.00
2007,10,27,12,59,10.90
2007,10,27,13,00,10.80
2007,10,27,13,01,10.70
2007,10,27,13,02,10.60
2007,10,27,13,03,10.50
2007,10,27,13,04,10.40
2007,10,27,13,05,10.30
2007,10,27,13,06,10.30
2007,10,27,13,07,10.20
2007,10,27,13,08,10.20
2007,10,27,13,09,10.20
2007,10,27,13,10,10.20
2007,10,27,13,11,10.20
2007,10,27,13,12,10.20
2007,10,27,13,13,10.20
2007,10,27,13,14,10.30
2007,10,27,13,15,10.30
2007,10,27,13,16,10.20
2007,10,27,13,17,10.20
2007,10,27,13,18,10.20
2007,10,27,13,19,10.20
2007,10,27,13,20,10.20
2007,10,27,13,21,10.20
2007,10,27,13,22,10.20
2007,10,27,13,23,10.20
2007,10,27,13,24,10.20
2007,10,27,13,25,10.30
2007,10,27,13,26,10.30
2007,10,27,13,27,10.40
2007,10,27,13,28,10.40
2007,10,27,13,29,10.40
2007,10,27,13,30,10.40
2007,10,27,13,31,10.40
2007,10,27,13,32,10.40
2007,10,27,13,33,10.40
2007,10,27,13,34,10.40
2007,10,27,13,35,10.40
2007,10,27,13,36,10.40
2007,10,27,13,37,10.40
2007,10,27,13,38,10.50
2007,10,27,13,39,10.60
2007,10,27,13,40,10.60
2007,10,27,13,41,10.60
2007,10,27,13,42,10.60
2007,10,27,13,43,10.60
2007,10,27,13,44,10.60
2007,10,27,13,45,10.70
2007,10,27,13,46,10.70
2007,10,27,13,47,10.70
2007,10,27,13,48,10.80
2007,10,27,13,49,10.80
2007,10,27,13,50,10.80
2007,10,27,13,51,10.80
2007,10,27,13,52,10.80
2007,10,27,13,53,10.90
2007,10,27,13,54,10.90
2007,10,27,13,55,10.90
2007,10,27,13,56,10.90
2007,10,27,13,57,11.10
2007,10,27,13,58,11.10
2007,10,27,13,59,11.10
2007,10,27,14,00,11.10
2007,10,27,14,01,11.20
2007,10,27,14,02,11.20
2007,10,27,14,03,11.30
2007,10,27,14,04,11.30
2007,10,27,14,05,11.30
2007,10,27,14,06,11.40
2007,10,27,14,07,11.40
2007,10,27,14,08,11.40
2007,10,27,14,09,11.40
2007,10,27,14,10,11.40
2007,10,27,14,11,11.60
2007,10,27,14,12,11.60
2007,10,27,14,13,11.60
2007,10,27,14,14,11.60
2007,10,27,14,15,11.60
2007,10,27,14,16,11.70
2007,10,27,14,17,11.70
2007,10,27,14,18,11.80
2007,10,27,14,19,11.80
2007,10,27,14,20,11.80
2007,10,27,14,21,11.80
2007,10,27,14,22,11.80
2007,10,27,14,23,11.70
2007,10,27,14,24,11.70
2007,10,27,14,25,11.60
2007,10,27,14,26,11.60
2007,10,27,14,27,11.60
2007,10,27,14,28,11.50
2007,10,27,14,29,11.40
2007,10,27,14,30,11.40
2007,10,27,14,31,11.40
2007,10,27,14,32,11.40
2007,10,27,14,33,11.30
2007,10,27,14,34,11.30
2007,10,27,14,35,11.30
2007,10,27,14,36,11.30
2007,10,27,14,37,11.30
2007,10,27,14,38,11.30
2007,10,27,14,39,11.30
2007,10,27,14,40,11.30
2007,10,27,14,41,11.30
2007,10,27,14,42,11.30
2007,10,27,14,43,11.30
2007,10,27,14,44,11.20
2007,10,27,14,45,11.20
2007,10,27,14,46,11.10
2007,10,27,14,47,11.10
2007,10,27,14,48,11.00
2007,10,27,14,49,10.90
2007,10,27,14,50,10.90
2007,10,27,14,51,10.80
2007,10,27,14,52,10.80
2007,10,27,14,53,10.70
2007,10,27,14,54,10.70
2007,10,27,14,55,10.70
2007,10,27,14,56,10.70
2007,10,27,14,57,10.70
2007,10,27,14,58,10.70
2007,10,27,14,59,10.70
2007,10,27,15,00,10.70
2007,10,27,15,01,10.70
2007,10,27,15,02,10.70
2007,10,27,15,03,10.70
2007,10,27,15,04,10.70
2007,10,27,15,05,10.70
2007,10,27,15,06,10.70
2007,10,27,15,07,10.60
2007,10,27,15,08,10.60
2007,10,27,15,09,10.60
2007,10,27,15,10,10.60
2007,10,27,15,11,10.60
2007,10,27,15,12,10.60
2007,10,27,15,13,10.50
2007,10,27,15,14,10.40
2007,10,27,15,15,10.40
2007,10,27,15,16,10.40
2007,10,27,15,17,10.40
2007,10,27,15,18,10.40
2007,10,27,15,19,10.40
2007,10,27,15,20,10.40
2007,10,27,15,21,10.30
2007,10,27,15,22,10.30
2007,10,27,15,23,10.30
2007,10,27,15,24,10.30
2007,10,27,15,25,10.30
2007,10,27,15,26,10.30
2007,10,27,15,27,10.30
2007,10,27,15,28,10.30
2007,10,27,15,29,10.30
2007,10,27,15,30,10.40
2007,10,27,15,31,10.40
2007,10,27,15,32,10.40
2007,10,27,15,33,10.40
2007,10,27,15,34,10.40
2007,10,27,15,35,10.40
2007,10,27,15,36,10.40
2007,10,27,15,37,10.40
2007,10,27,15,38,10.40
2007,10,27,15,39,10.40
2007,10,27,15,40,10.40
2007,10,27,15,41,10.60
2007,10,27,15,42,10.60
2007,10,27,15,43,10.60
2007,10,27,15,44,10.60
2007,10,27,15,45,10.60
2007,10,27,15,46,10.70
2007,10,27,15,47,10.70
2007,10,27,15,48,10.70
2007,10,27,15,49,10.70
2007,10,27,15,50,10.70
2007,10,27,15,51,10.60
2007,10,27,15,52,10.60
2007,10,27,15,53,10.60
2007,10,27,15,54,10.60
2007,10,27,15,55,10.60
2007,10,27,15,56,10.60
2007,10,27,15,57,10.60
2007,10,27,15,58,10.60
2007,10,27,15,59,10.60
2007,10,27,16,00,10.60
2007,10,27,16,01,10.60
2007,10,27,16,02,10.60
2007,10,27,16,03,10.60
2007,10,27,16,04,10.60
2007,10,27,16,05,10.60
2007,10,27,16,06,10.60
2007,10,27,16,07,10.60
2007,10,27,16,08,10.70
2007,10,27,16,09,10.70
2007,10,27,16,10,10.80
2007,10,27,16,11,10.80
2007,10,27,16,12,10.80
2007,10,27,16,13,10.90
2007,10,27,16,14,10.90
2007,10,27,16,15,10.90
2007,10,27,16,16,10.90
2007,10,27,16,17,11.00
2007,10,27,16,18,11.10
2007,10,27,16,19,11.10
2007,10,27,16,20,11.10
2007,10,27,16,21,11.10
2007,10,27,16,22,11.10
2007,10,27,16,23,11.10
2007,10,27,16,24,11.10
2007,10,27,16,25,11.10
2007,10,27,16,26,11.10
2007,10,27,16,27,11.00
2007,10,27,16,28,10.90
2007,10,27,16,29,10.90
2007,10,27,16,30,10.80
2007,10,27,16,31,10.80
2007,10,27,16,32,10.70
2007,10,27,16,33,10.70
2007,10,27,16,34,10.60
2007,10,27,16,35,10.60
2007,10,27,16,36,10.50
2007,10,27,16,37,10.40
2007,10,27,16,38,10.40
2007,10,27,16,39,10.40
2007,10,27,16,40,10.40
2007,10,27,16,41,10.30
2007,10,27,16,42,10.30
2007,10,27,16,43,10.30
2007,10,27,16,44,10.20
2007,10,27,16,45,10.20
2007,10,27,16,46,10.20
2007,10,27,16,47,10.20
2007,10,27,16,48,10.10
2007,10,27,16,49,10.10
2007,10,27,16,50,10.10
2007,10,27,16,51,10.10
2007,10,27,16,52,10.10
2007,10,27,16,53,10.10
2007,10,27,16,54,10.10
2007,10,27,16,55,10.10
2007,10,27,16,56,10.10
2007,10,27,16,57,10.10
2007,10,27,16,58,10.10
2007,10,27,16,59,10.10
2007,10,27,17,00,10.00
2007,10,27,17,01,9.90
2007,10,27,17,02,9.90
2007,10,27,17,03,9.90
2007,10,27,17,04,9.90
2007,10,27,17,05,9.90
2007,10,27,17,06,9.90
2007,10,27,17,07,9.90
2007,10,27,17,08,9.90
2007,10,27,17,09,9.80
2007,10,27,17,10,9.80
2007,10,27,17,11,9.80
2007,10,27,17,12,9.80
2007,10,27,17,13,9.80
2007,10,27,17,14,9.80
2007,10,27,17,15,9.80
2007,10,27,17,16,9.80
2007,10,27,17,17,9.80
2007,10,27,17,18,9.80
2007,10,27,17,19,9.80
2007,10,27,17,20,9.80
2007,10,27,17,21,9.80
2007,10,27,17,22,9.80
2007,10,27,17,23,9.70
2007,10,27,17,24,9.70
2007,10,27,17,25,9.70
2007,10,27,17,26,9.70
2007,10,27,17,27,9.70
2007,10,27,17,28,9.70
2007,10,27,17,29,9.70
2007,10,27,17,30,9.70
2007,10,27,17,31,9.70
2007,10,27,17,32,9.70
2007,10,27,17,33,9.70
2007,10,27,17,34,9.70
2007,10,27,17,35,9.70
2007,10,27,17,36,9.60
2007,10,27,17,37,9.60
2007,10,27,17,38,9.60
2007,10,27,17,39,9.60
2007,10,27,17,40,9.50
2007,10,27,17,41,9.50
2007,10,27,17,42,9.50
2007,10,27,17,43,9.40
2007,10,27,17,44,9.40
2007,10,27,17,45,9.40
2007,10,27,17,46,9.30
2007,10,27,17,47,9.30
2007,10,27,17,48,9.30
2007,10,27,17,49,9.20
2007,10,27,17,50,9.20
2007,10,27,17,51,9.20
2007,10,27,17,52,9.20
2007,10,27,17,53,9.10
2007,10,27,17,54,9.10